Date String (YYYY-MM-DD hh:mm:ss) UTC,Instrument flags,absolute air pressure of the measurement (hPa),sample flow rate (lpm),inlet stack bypass flow (lpm),air temperature of the measurement (°C),ambient temperature measured by the external sensor (°C),aerosol sample conditioner tube jacket temperature (°C),OPC LED temperature (°C),internal box temperature (°C),relative humidity of the measurement (%),span deviation,mass concentration of particles derived from Lorenz-Mie calculation of OPC scattering (μg/m³),mass concentration of particles derived from Lorenz-Mie calculation of OPC scattering (μg/m³),mass concentration of particles derived from Lorenz-Mie calculation of OPC scattering (μg/m³)
DateTimeUTC,F1_M11,P_M11,Q1_M11,Q2_M11,T1_M11,T2_M11,T3_M11,T4_M11,T5_M11,U1_M11,ZSPAN_M11,X2_M11,X0_M11,X1_M11
2024-05-28 14:00:00,SystemResetWarning,0835.5,5.01,000.00,029.9,029.1,000.0,038.2,031.5,016.7,0000.0,0003.47,0011.58,0002.60
2024-05-28 14:01:00,SystemResetWarning,0835.5,5.01,000.00,029.9,029.1,000.0,038.2,031.5,016.8,0000.0,0003.56,0011.68,0002.64
2024-05-28 14:02:00,SystemResetWarning,0835.5,5.00,000.00,029.9,029.1,000.0,038.2,031.5,017.1,0000.0,0003.55,0011.11,0002.66
2024-05-28 14:03:00,SystemResetWarning,0835.5,5.00,000.00,029.9,029.1,000.0,038.2,031.5,016.4,0000.0,0003.55,0009.97,0002.64
2024-05-28 14:04:00,SystemResetWarning,0835.5,5.00,000.00,029.9,029.1,000.0,038.2,031.5,016.7,0000.0,0003.53,0010.34,0002.65
2024-05-28 14:05:00,SystemResetWarning,0835.5,5.00,000.00,029.9,029.1,000.0,038.2,031.5,017.0,0000.0,0003.54,0010.23,0002.66
2024-05-28 14:06:00,SystemResetWarning,0835.5,5.00,000.00,029.9,029.1,000.0,038.2,031.6,016.8,0000.0,0003.54,0009.69,0002.67
2024-05-28 14:07:00,SystemResetWarning,0835.5,5.00,000.00,029.9,029.1,000.0,038.2,031.5,016.8,0000.0,0003.53,0009.65,0002.67
2024-05-28 14:08:00,SystemResetWarning,0835.5,4.99,000.00,029.9,029.1,000.0,038.2,031.6,016.6,0000.0,0003.54,0009.65,0002.68
2024-05-28 14:09:00,SystemResetWarning,0835.5,5.00,000.00,029.9,029.1,000.0,038.2,031.6,016.6,0000.0,0003.55,0009.92,0002.70
2024-05-28 14:10:00,SystemResetWarning,0835.5,5.01,000.00,029.9,029.1,000.0,038.2,031.5,016.7,0000.0,0003.52,0009.78,0002.70
2024-05-28 14:11:00,SystemResetWarning,0835.5,5.00,000.00,029.9,029.1,000.0,038.2,031.6,016.5,0000.0,0003.45,0009.42,0002.69
2024-05-28 14:12:00,SystemResetWarning,0835.5,4.99,000.00,029.9,029.1,000.0,038.2,031.6,016.3,0000.0,0003.40,0009.61,0002.67
2024-05-28 14:13:00,SystemResetWarning,0835.5,5.00,000.00,029.9,029.1,000.0,038.2,031.6,016.4,0000.0,0003.42,0010.30,0002.68
2024-05-28 14:14:00,SystemResetWarning,0835.5,5.00,000.00,029.9,029.1,000.0,038.2,031.6,016.8,0000.0,0003.41,0010.32,0002.69
2024-05-28 14:15:00,SystemResetWarning,0835.5,5.00,000.00,029.9,029.1,000.0,038.2,031.6,016.6,0000.0,0003.45,0009.74,0002.69
2024-05-28 14:16:00,SystemResetWarning,0835.5,5.00,000.00,029.9,029.2,000.0,038.3,031.6,016.5,0000.0,0003.47,0009.78,0002.68
2024-05-28 14:17:00,SystemResetWarning,0835.5,5.01,000.00,029.9,029.2,000.0,038.3,031.6,016.5,0000.0,0003.47,0010.02,0002.68
2024-05-28 14:18:00,SystemResetWarning,0835.5,5.01,000.00,030.0,029.2,000.0,038.3,031.6,016.6,0000.0,0003.48,0010.34,0002.68
2024-05-28 14:19:00,SystemResetWarning,0835.5,5.00,000.00,030.0,029.2,000.0,038.3,031.6,016.5,0000.0,0003.48,0011.40,0002.67
2024-05-28 14:20:00,SystemResetWarning,0835.5,5.00,000.00,030.0,029.2,000.0,038.3,031.6,016.7,0000.0,0003.47,0010.98,0002.66
2024-05-28 14:21:00,SystemResetWarning,0835.5,4.99,000.00,030.0,029.2,000.0,038.3,031.6,016.5,0000.0,0003.47,0010.48,0002.64
2024-05-28 14:22:00,SystemResetWarning,0835.6,4.99,000.00,030.0,029.2,000.0,038.3,031.6,016.3,0000.0,0003.47,0010.59,0002.63
2024-05-28 14:23:00,SystemResetWarning,0835.5,5.00,000.00,030.0,029.2,000.0,038.3,031.6,016.0,0000.0,0003.45,0010.08,0002.61
2024-05-28 14:24:00,SystemResetWarning,0835.5,5.00,000.00,030.0,029.2,000.0,038.3,031.6,015.9,0000.0,0003.42,0009.30,0002.61
2024-05-28 14:25:00,SystemResetWarning,0835.5,5.00,000.00,030.0,029.2,000.0,038.3,031.7,016.2,0000.0,0003.39,0009.20,0002.60
2024-05-28 14:26:00,SystemResetWarning,0835.5,5.00,000.00,030.0,029.2,000.0,038.3,031.7,016.3,0000.0,0003.34,0009.00,0002.59
2024-05-28 14:27:00,SystemResetWarning,0835.5,5.01,000.00,030.0,029.2,000.0,038.3,031.7,016.1,0000.0,0003.28,0008.84,0002.56
2024-05-28 14:28:00,SystemResetWarning,0835.5,5.00,000.00,030.0,029.2,000.0,038.3,031.7,016.2,0000.0,0003.23,0008.34,0002.56
2024-05-28 14:29:00,SystemResetWarning,0835.5,4.99,000.00,030.0,029.2,000.0,038.3,031.7,016.2,0000.0,0003.21,0008.06,0002.56
2024-05-28 14:30:00,SystemResetWarning,0835.5,5.00,000.00,030.0,029.2,000.0,038.3,031.7,016.3,0000.0,0003.21,0007.38,0002.57
2024-05-28 14:31:00,SystemResetWarning,0835.5,5.00,000.00,030.0,029.2,000.0,038.3,031.7,016.4,0000.0,0003.18,0008.09,0002.56
2024-05-28 14:32:00,SystemResetWarning,0835.5,4.99,000.00,030.0,029.2,000.0,038.3,031.7,016.4,0000.0,0003.16,0008.74,0002.54
2024-05-28 14:33:00,SystemResetWarning,0835.5,5.00,000.00,030.0,029.2,000.0,038.3,031.7,016.1,0000.0,0003.18,0009.40,0002.54
2024-05-28 14:34:00,SystemResetWarning,0835.5,5.00,000.00,030.1,029.3,000.0,038.4,031.7,016.2,0000.0,0003.18,0010.01,0002.54
2024-05-28 14:35:00,SystemResetWarning,0835.5,5.01,000.00,030.0,029.3,000.0,038.4,031.7,016.2,0000.0,0003.18,0010.89,0002.54
2024-05-28 14:36:00,SystemResetWarning,0835.5,5.01,000.00,030.1,029.3,000.0,038.4,031.7,016.4,0000.0,0003.22,0010.64,0002.54
2024-05-28 14:37:00,SystemResetWarning,0835.5,5.00,000.00,030.1,029.3,000.0,038.4,031.7,016.1,0000.0,0003.24,0010.77,0002.54
2024-05-28 14:38:00,SystemResetWarning,0835.5,4.99,000.00,030.1,029.3,000.0,038.4,031.7,016.1,0000.0,0003.26,0010.85,0002.55
2024-05-28 14:39:00,SystemResetWarning,0835.5,5.00,000.00,030.1,029.3,000.0,038.4,031.8,016.4,0000.0,0003.27,0010.85,0002.55
2024-05-28 14:40:00,SystemResetWarning,0835.5,5.00,000.00,030.1,029.3,000.0,038.4,031.7,016.5,0000.0,0003.29,0011.83,0002.54
2024-05-28 14:41:00,SystemResetWarning,0835.5,5.00,000.00,030.1,029.3,000.0,038.4,031.8,016.4,0000.0,0003.31,0011.85,0002.52
2024-05-28 14:42:00,SystemResetWarning,0835.5,5.00,000.00,030.1,029.3,000.0,038.4,031.8,016.5,0000.0,0003.30,0010.92,0002.52
2024-05-28 14:43:00,SystemResetWarning,0835.5,5.00,000.00,030.1,029.3,000.0,038.4,031.8,016.7,0000.0,0003.29,0010.80,0002.52
2024-05-28 14:44:00,SystemResetWarning,0835.5,5.00,000.00,030.1,029.3,000.0,038.4,031.7,016.8,0000.0,0003.29,0010.36,0002.52
2024-05-28 14:45:00,SystemResetWarning,0835.5,5.00,000.00,030.1,029.4,000.0,038.4,031.8,016.9,0000.0,0003.29,0010.65,0002.51
2024-05-28 14:46:00,SystemResetWarning,0835.6,5.00,000.00,030.1,029.4,000.0,038.4,031.8,016.9,0000.0,0003.30,0009.96,0002.49
2024-05-28 14:47:00,SystemResetWarning,0835.5,5.00,000.00,030.1,029.4,000.0,038.4,031.8,016.8,0000.0,0003.30,0009.95,0002.47
2024-05-28 14:48:00,SystemResetWarning,0835.5,5.00,000.00,030.1,029.4,000.0,038.5,031.8,016.7,0000.0,0003.29,0010.72,0002.46
2024-05-28 14:49:00,SystemResetWarning,0835.5,5.00,000.00,030.1,029.4,000.0,038.5,031.8,016.6,0000.0,0003.28,0011.71,0002.44
2024-05-28 14:50:00,SystemResetWarning,0835.5,5.00,000.00,030.2,029.4,000.0,038.5,031.8,016.8,0000.0,0003.28,0011.84,0002.43
2024-05-28 14:51:00,SystemResetWarning,0835.5,5.01,000.00,030.2,029.4,000.0,038.5,031.9,016.4,0000.0,0003.25,0011.38,0002.42
2024-05-28 14:52:00,SystemResetWarning,0835.5,5.00,000.00,030.2,029.4,000.0,038.5,031.9,016.8,0000.0,0003.26,0011.11,0002.43
2024-05-28 14:53:00,SystemResetWarning,0835.5,5.00,000.00,030.2,029.4,000.0,038.5,031.8,017.0,0000.0,0003.28,0011.96,0002.43
2024-05-28 14:54:00,SystemResetWarning,0835.5,5.00,000.00,030.2,029.4,000.0,038.5,031.9,016.8,0000.0,0003.30,0011.97,0002.44
2024-05-28 14:55:00,SystemResetWarning,0835.5,5.00,000.00,030.2,029.4,000.0,038.5,031.9,016.9,0000.0,0003.31,0012.06,0002.44
2024-05-28 14:56:00,SystemResetWarning,0835.5,5.00,000.00,030.2,029.4,000.0,038.5,031.9,016.6,0000.0,0003.30,0011.85,0002.45
2024-05-28 14:57:00,SystemResetWarning,0835.5,4.99,000.00,030.2,029.4,000.0,038.5,031.9,017.3,0000.0,0003.31,0011.80,0002.46
2024-05-28 14:58:00,SystemResetWarning,0835.5,5.00,000.00,030.2,029.4,000.0,038.5,031.9,017.2,0000.0,0003.29,0012.07,0002.47
2024-05-28 14:59:00,SystemResetWarning,0835.5,5.00,000.00,030.2,029.4,000.0,038.5,031.8,016.8,0000.0,0003.29,0011.64,0002.48
